Location: Newark
(41.6500°N, 71.4833°W)
Time: 04:39:57
(UTC+00:00)

A-11 Canister half - Pass Details

Date: 26 January 2020
Orbit: 1517 x 1683 km, 47.2° (Epoch: 18 February)

Event Time Altitude Azimuth Distance (km) Brightness Sun altitude
Rises 04:13:37 0° 235° (SW) 4,754 - -65.3°
Reaches altitude 10° 04:16:43 10° 235° (SW) 3,751 - -65.5°
Maximum altitude 04:26:10 80° 150° (SSE) 1,555 - -66.2°
Drops below altitude 10° 04:35:26 10° 65° (ENE) 3,682 - -66.7°
Sets 04:38:27 0° 65° (ENE) 4,664 - -66.8°
